| time (UTC) | temp F | wind direction | speed MPH | gust MPH | rain 1hr in | rain 24hr in | rain mn in | humidity % | barometer mb |
| 20260510014505 | 40 | 135 | 3.0 | 4.0 | 0.00 | 0.00 | 0.00 | 55 | 1017.6 |
| 20260510013005 | 40 | 135 | 2.0 | 4.0 | 0.00 | 0.00 | 0.00 | 55 | 1017.6 |
| 20260510011504 | 41 | 135 | 2.0 | 4.0 | 0.00 | 0.00 | 0.00 | 55 | 1017.8 |
| 20260510010005 | 41 | 135 | 3.0 | 6.0 | 0.00 | 0.00 | 0.00 | 55 | 1017.8 |
| 20260510004505 | 41 | 135 | 2.0 | 4.0 | 0.00 | 0.00 | 0.00 | 55 | 1018.0 |
| 20260510001504 | 41 | 170 | 2.0 | 4.0 | 0.00 | 0.00 | 0.00 | 55 | 1018.0 |
| 20260510000005 | 41 | 90 | 2.0 | 4.0 | 0.00 | 0.00 | 0.00 | 55 | 1018.2 |
| 20260509234504 | 41 | 90 | 2.0 | 4.0 | 0.00 | 0.00 | 0.00 | 54 | 1018.5 |
| 20260509233004 | 41 | 77 | 2.0 | 3.0 | 0.00 | 0.00 | 0.00 | 54 | 1018.4 |
| 20260509231508 | 42 | 78 | 1.0 | 4.0 | 0.00 | 0.00 | 0.00 | 54 | 1018.6 |
| 20260509230007 | 42 | 33 | 2.0 | 4.0 | 0.00 | 0.00 | 0.00 | 53 | 1018.7 |
| 20260509224509 | 42 | 85 | 1.0 | 2.0 | 0.00 | 0.00 | 0.00 | 53 | 1019.0 |
| 20260509223008 | 42 | 160 | 1.0 | 3.0 | 0.00 | 0.00 | 0.00 | 52 | 1019.1 |
| 20260509221507 | 42 | 78 | 1.0 | 3.0 | 0.00 | 0.00 | 0.00 | 52 | 1019.2 |
| 20260509220011 | 43 | 123 | 1.0 | 3.0 | 0.00 | 0.00 | 0.00 | 51 | 1019.3 |
| 20260509214507 | 43 | 45 | 1.0 | 3.0 | 0.00 | 0.00 | 0.00 | 51 | 1019.3 |
| 20260509213007 | 43 | 67 | 2.0 | 4.0 | 0.00 | 0.00 | 0.00 | 51 | 1019.2 |
| 20260509211507 | 44 | 47 | 2.0 | 4.0 | 0.00 | 0.00 | 0.00 | 51 | 1019.1 |
| 20260509210008 | 44 | 82 | 2.0 | 4.0 | 0.00 | 0.00 | 0.00 | 44 | 1019.2 |
| 20260509204507 | 44 | 106 | 3.0 | 7.0 | 0.00 | 0.00 | 0.00 | 44 | 1019.2 |
| 20260509203008 | 44 | 90 | 3.0 | 5.0 | 0.00 | 0.00 | 0.00 | 43 | 1019.1 |
| 20260509201507 | 45 | 90 | 3.0 | 5.0 | 0.00 | 0.00 | 0.00 | 43 | 1019.2 |
| 20260509200008 | 45 | 90 | 3.0 | 5.0 | 0.00 | 0.00 | 0.00 | 43 | 1019.2 |
| 20260509194507 | 45 | 90 | 3.0 | 5.0 | 0.00 | 0.00 | 0.00 | 43 | 1019.3 |
| 20260509191507 | 46 | 90 | 3.0 | 5.0 | 0.00 | 0.00 | 0.00 | 42 | 1019.2 |
| 20260509190007 | 46 | 90 | 3.0 | 6.0 | 0.00 | 0.00 | 0.00 | 42 | 1019.1 |
| 20260509184508 | 47 | 88 | 4.0 | 6.0 | 0.00 | 0.00 | 0.00 | 42 | 1019.0 |
| 20260509183007 | 47 | 90 | 3.0 | 5.0 | 0.00 | 0.00 | 0.00 | 41 | 1018.9 |
| 20260509181507 | 48 | 90 | 3.0 | 5.0 | 0.00 | 0.00 | 0.00 | 41 | 1019.0 |
| 20260509180007 | 49 | 90 | 2.0 | 6.0 | 0.00 | 0.00 | 0.00 | 41 | 1019.2 |
| 20260509174507 | 49 | 90 | 3.0 | 7.0 | 0.00 | 0.00 | 0.00 | 40 | 1018.8 |
| 20260509171506 | 51 | 90 | 2.0 | 4.0 | 0.00 | 0.00 | 0.00 | 39 | 1018.9 |
| 20260509170008 | 51 | 90 | 2.0 | 4.0 | 0.00 | 0.00 | 0.00 | 38 | 1019.1 |
| 20260509164508 | 52 | 90 | 3.0 | 5.0 | 0.00 | 0.00 | 0.00 | 37 | 1019.0 |
| 20260509163007 | 53 | 90 | 3.0 | 6.0 | 0.00 | 0.00 | 0.00 | 34 | 1019.0 |
| 20260509161506 | 54 | 90 | 3.0 | 4.0 | 0.00 | 0.00 | 0.00 | 33 | 1019.1 |
| 20260509154506 | 56 | 90 | 4.0 | 9.0 | 0.00 | 0.00 | 0.00 | 32 | 1019.3 |
| 20260509144507 | 57 | 57 | 4.0 | 11.0 | 0.00 | 0.00 | 0.00 | 32 | 1019.3 |
| 20260509143006 | 58 | 90 | 3.0 | 7.0 | 0.00 | 0.00 | 0.00 | 32 | 1019.2 |
| 20260509140006 | 60 | 86 | 3.0 | 8.0 | 0.00 | 0.00 | 0.00 | 34 | 1019.2 |
| 20260509131506 | 54 | 33 | 3.0 | 8.0 | 0.00 | 0.00 | 0.00 | 33 | 1019.5 |
| 20260509130006 | 54 | 355 | 3.0 | 8.0 | 0.00 | 0.00 | 0.00 | 33 | 1019.7 |
| 20260509124507 | 54 | 8 | 4.0 | 10.0 | 0.00 | 0.00 | 0.00 | 34 | 1019.6 |
| 20260509123006 | 54 | 46 | 3.0 | 7.0 | 0.00 | 0.00 | 0.00 | 33 | 1019.7 |
| 20260509121506 | 55 | 46 | 4.0 | 7.0 | 0.00 | 0.00 | 0.00 | 32 | 1019.8 |
| 20260509120007 | 56 | 18 | 3.0 | 7.0 | 0.00 | 0.00 | 0.00 | 34 | 1019.9 |
| 20260509114506 | 54 | 87 | 4.0 | 8.0 | 0.00 | 0.00 | 0.00 | 33 | 1019.7 |
| 20260509113006 | 55 | 90 | 4.0 | 8.0 | 0.00 | 0.00 | 0.00 | 33 | 1019.8 |
| 20260509104506 | 54 | 90 | 4.0 | 8.0 | 0.00 | 0.00 | 0.00 | 33 | 1019.8 |
| 20260509103006 | 54 | 59 | 4.0 | 9.0 | 0.00 | 0.00 | 0.00 | 34 | 1019.9 |
| 20260509093005 | 54 | 113 | 3.0 | 7.0 | 0.00 | 0.00 | 0.00 | 35 | 1019.8 |
| 20260509090006 | 53 | 45 | 3.0 | 5.0 | 0.00 | 0.00 | 0.00 | 36 | 1019.8 |
| 20260509084505 | 53 | 166 | 4.0 | 7.0 | 0.00 | 0.00 | 0.00 | 35 | 1019.9 |
| 20260509081505 | 54 | 107 | 3.0 | 8.0 | 0.00 | 0.00 | 0.00 | 37 | 1019.8 |
| 20260509080006 | 53 | 139 | 3.0 | 5.0 | 0.00 | 0.00 | 0.00 | 38 | 1019.8 |
| 20260509074506 | 52 | 135 | 2.0 | 6.0 | 0.00 | 0.00 | 0.00 | 41 | 1019.8 |
| 20260509073006 | 52 | 135 | 3.0 | 6.0 | 0.00 | 0.00 | 0.00 | 40 | 1019.8 |
| 20260509071506 | 52 | 135 | 3.0 | 6.0 | 0.00 | 0.00 | 0.00 | 43 | 1019.7 |
| 20260509070005 | 51 | 135 | 3.0 | 8.0 | 0.00 | 0.00 | 0.00 | 45 | 1019.8 |
| 20260509064505 | 51 | 86 | 2.0 | 6.0 | 0.00 | 0.00 | 0.00 | 48 | 1019.9 |
| 20260509063005 | 49 | 135 | 2.0 | 4.0 | 0.00 | 0.00 | 0.00 | 52 | 1019.8 |
| 20260509060005 | 47 | 80 | 2.0 | 4.0 | 0.00 | 0.00 | 0.00 | 57 | 1019.5 |
| 20260509054505 | 46 | 124 | 2.0 | 4.0 | 0.00 | 0.00 | 0.00 | 61 | 1019.4 |
| 20260509051505 | 44 | 90 | 2.0 | 4.0 | 0.00 | 0.00 | 0.00 | 63 | 1019.2 |
| 20260509044505 | 43 | 90 | 1.0 | 4.0 | 0.00 | 0.00 | 0.00 | 67 | 1019.0 |
| 20260509043005 | 42 | 90 | 2.0 | 4.0 | 0.00 | 0.00 | 0.00 | 66 | 1019.2 |
| 20260509041507 | 41 | 90 | 2.0 | 4.0 | 0.00 | 0.00 | 0.00 | 65 | 1018.9 |
| 20260509034505 | 41 | 90 | 2.0 | 4.0 | 0.00 | 0.00 | 0.00 | 65 | 1018.9 |
| 20260509033004 | 41 | 90 | 3.0 | 5.0 | 0.00 | 0.00 | 0.00 | 65 | 1018.7 |
| 20260509031505 | 41 | 90 | 2.0 | 4.0 | 0.00 | 0.00 | 0.00 | 65 | 1019.0 |
| 20260509030005 | 42 | 90 | 2.0 | 4.0 | 0.00 | 0.00 | 0.00 | 65 | 1018.9 |
| 20260509020005 | 42 | 104 | 2.0 | 4.0 | 0.00 | 0.00 | 0.00 | 63 | 1018.9 |